Location: Great Snoring
(52.8667°N, 0.8833°E)
Time: 04:37:08
(UTC+00:00)

Landsat 5 - Pass Details

Date: 19 May 2025
Orbit: 510 x 610 km, 98.1° (Epoch: 13 June)

Event Time Altitude Azimuth Distance (km) Brightness Sun altitude
Rises 23:27:02 0° 12° (NNE) 2,806 8.3 -16.9°
Reaches altitude 10° 23:29:11 10° 10° (N) 1,917 7.3 -17.0°
Maximum altitude 23:33:19 65° 289° (WNW) 659 3.7 -17.0°
Enters shadow 23:35:31 27° 214° (SW) 1,171 4.5 -17.0°
